STARLINK-11601 [DTC] (63110 NORAD) Tracking and Keplerian Element Data

This shows tracking and keplerian element data for the satellite.

Feedback or suggestion? Click here.




ElementValue
Catalog63110
NameSTARLINK-11601 [DTC]
Epoch Orbit4708
Epoch Day354.00779442
Epoch Year2025
RAAN357.1333
Inclination42.9987
Eccentricity0.0004575
Argument of Perigee286.2924
Mean Anonmoly73.744
Mean Motion15.70964084
Decay Rate0.00202728
L11 63110U 25039G 25354.00779442 .00202728 00000+0 15366-2 0 9995
L22 63110 42.9987 357.1333 0004575 286.2924 73.7440 15.70964084 47089



Live tracking and technical data element details for STARLINK-11601 [DTC] (NORAD 63110). STARLINK-11601 [DTC] can be tracked NOW for your location showing map with azimuth and elevation plus other details from your city location.







IsCatalogInMostPopularTable: catalog: 63110, numindb: 2
Update: records affected: 1



GetName: 63110 STARLINK-11601 [DTC]

Hit Count: updated at: Sat, 07 Feb 2026 08:53:36 GMT